Flag Weather past 2 weeks in Chico, California, U.S.A.

Now
75 °F

Broken clouds.


Feels Like: 78 °F
Forecast: 58 / 77 °F
Wind: 7 mph from Southeast

Location: Chico Municipal

Current Time: Oct 30, 2014 at 4:16:45 PM

Latest Report: Oct 30, 2014 at 3:52 PM


Visibility: 25 mi

Pressure: 29.85 "Hg

Humidity: 41%

Dew point: 50 °F

Location of ChicoLocation

Historic Weather in Chico — Graph

°F

Chico temperature yesterday

Maximum temperature yesterday: 81 °F (at 3:50 PM)
Minimum temperature yesterday: 48 °F (at 2:55 AM)
Average temperature yesterday: 60 °F

Past Weeks' High & Low Weather Summary

 TemperatureHumidityPressure
High81 °F (Oct 18, 2:49 PM)100% (Oct 23, 6:55 PM)30.18 "Hg (Oct 23, 6:55 PM)
Low43 °F (Oct 28, 5:35 AM)26% (Oct 27, 4:49 PM)29.81 "Hg (Oct 19, 5:51 PM)
Average60 °F64%29.99 "Hg
* Reported Oct 15 2:58 PM — Oct 30 2:49 PM, Chico, Weather by CustomWeather, © 2014

Note: Actual official high and low records may vary slightly from our data, if they occured in-between our weather recording intervals... More about our weather records

Advertising

Chico weather history for previous 24 hours

 ConditionsComfort  
Time TempWeatherWind HumidityBarometerVisibility
2:49 PM
Oct 30
73 °FBroken clouds.10 mph41%29.87 "Hg25 mi
1:50 PM73 °FBroken clouds.5 mph44%29.90 "Hg10 mi
12:56 PM72 °FBroken clouds.9 mph53%29.92 "Hg40 mi
11:55 AM72 °FBroken clouds.5 mph47%29.94 "Hg40 mi
10:50 AM66 °FMild.N/A56%29.96 "HgN/A
9:50 AM59 °FBroken clouds.5 mph68%29.97 "Hg40 mi
8:47 AM52 °FPartly sunny.No wind94%29.98 "Hg25 mi
7:47 AM52 °FPartly cloudy.5 mph88%29.86 "Hg40 mi
6:55 AM54 °FPassing clouds.5 mph88%29.96 "Hg10 mi
6:35 AM54 °FClear.No wind88%29.96 "Hg10 mi
6:15 AM54 °FClear.No wind88%29.96 "Hg10 mi
5:55 AM54 °FClear.No wind88%29.96 "Hg10 mi
5:35 AM54 °FClear.3 mph88%29.96 "Hg10 mi
5:15 AM54 °FClear.5 mph88%29.96 "Hg10 mi
4:55 AM54 °FClear.3 mph88%29.96 "Hg10 mi
4:35 AM55 °FClear.No wind82%29.96 "Hg10 mi
4:15 AM55 °FClear.No wind82%29.96 "Hg10 mi
3:55 AM55 °FClear.No wind82%29.96 "Hg10 mi
3:35 AM59 °FClear.5 mph72%29.97 "Hg10 mi
3:15 AM55 °FClear.No wind82%29.98 "Hg10 mi
2:55 AM55 °FClear.No wind82%29.98 "Hg10 mi
2:35 AM57 °FClear.No wind77%29.98 "Hg10 mi
2:15 AM59 °FClear.No wind72%29.98 "Hg10 mi
1:55 AM59 °FClear.No wind72%29.99 "Hg10 mi
1:35 AM59 °FClear.No wind72%29.99 "Hg10 mi
1:15 AM61 °FClear.No wind68%30.00 "Hg10 mi
12:55 AM59 °FClear.No wind72%30.00 "Hg10 mi
12:35 AM61 °FClear.3 mph72%30.00 "Hg10 mi
12:15 AM61 °FClear.No wind77%30.01 "Hg10 mi
11:55 PM
Oct 29
63 °FClear.3 mph73%30.01 "Hg10 mi
11:35 PM63 °FClear.No wind73%30.01 "Hg10 mi
11:15 PM61 °FClear.3 mph72%30.01 "Hg10 mi
10:55 PM61 °FClear.No wind72%30.01 "Hg10 mi
10:35 PM61 °FClear.3 mph72%30.02 "Hg10 mi
10:15 PM64 °FClear.No wind64%30.01 "Hg10 mi
9:55 PM64 °FClear.No wind64%30.01 "Hg10 mi
9:35 PM64 °FClear.No wind64%30.01 "Hg10 mi
9:15 PM66 °FClear.No wind60%30.00 "Hg10 mi
8:55 PM68 °FClear.5 mph56%30.00 "Hg10 mi
8:15 PM68 °FClear.3 mph56%30.00 "Hg10 mi
7:55 PM68 °FClear.5 mph56%30.00 "Hg10 mi
7:35 PM70 °FClear.No wind53%29.99 "Hg10 mi
7:15 PM72 °FClear.3 mph50%29.99 "Hg10 mi
6:55 PM73 °FSunny.No wind47%29.99 "Hg10 mi
5:51 PM77 °FBroken clouds.7 mph44%29.99 "Hg25 mi
Weather by CustomWeather, © 2014

See weather overviewHow to use our weather pages